Wind_Speed
15 15 16 16 17 17 17 17 17 17 16 14 13 13 13 13 13 13 13 13 12 12 11 11 10 9 7 6 6 7 8 9 9 10 14 13 13 14 12 13 11 10 11 9 9 9 9 9 7 6 5 5 5 6 6 5 5 2 2 4 3 3 4 5 5 7 5 4 5 4 5 3 6 7 8 9 9 14 14 11 11 9 10 12 13 22 24 20
15 16 16 16 17 17 17 18 17 17 16 15 14 13 13 14 13 13 13 12 12 12 11 11 10 9 8 6 6 6 8 9 10 14 15 12 14 18 16 14 12 12 12 10 12 11 8 7 7 6 5 5 5 6 5 3 3 2 2 5 3 3 4 3 4 7 7 7 7 5 5 4 4 8 11 8 5 10 11 10 12 12 14 16 19 24 22 21
15 16 16 17 17 17 18 18 18 17 17 16 15 14 14 14 14 13 13 12 11 11 11 10 9 9 7 6 6 6 8 9 12 15 13 11 14 17 16 15 14 14 13 11 12 10 8 6 6 6 3 5 6 6 5 1 2 3 2 4 3 6 6 3 6 7 7 9 7 5 4 4 1 6 11 10 8 8 8 9 11 13 16 18 22 25 25 25
15 16 16 17 17 18 18 18 18 18 17 17 16 15 15 14 14 14 13 11 11 11 10 9 9 8 7 6 5 6 8 10 9 7 7 9 12 15 15 14 15 15 12 10 11 10 8 6 6 6 3 5 6 6 7 3 2 2 3 5 6 9 7 5 9 8 7 8 7 6 4 2 1 4 7 12 10 5 9 14 14 16 20 21 23 27 28 26
15 16 17 18 18 18 19 19 19 18 18 18 17 16 16 15 14 13 13 11 10 10 9 9 8 6 6 5 5 6 7 5 1 3 4 6 9 12 15 14 15 15 11 12 14 11 8 8 6 6 5 6 5 4 7 6 4 4 6 7 8 11 8 7 10 8 8 8 6 6 4 2 1 2 3 7 7 6 13 18 16 18 22 23 25 29 28 25
15 16 17 18 19 19 19 20 20 19 19 19 18 17 16 15 14 12 12 11 10 9 9 8 7 5 5 3 5 6 5 2 3 3 6 7 8 10 14 14 14 14 12 14 16 12 9 9 8 7 5 5 6 6 7 8 6 6 7 8 9 11 9 10 12 9 8 8 6 6 4 3 1 1 1 1 4 10 16 19 19 19 21 22 24 29 29 26
16 17 18 19 20 20 20 21 21 21 20 20 18 17 16 15 13 11 11 11 9 8 8 7 6 4 3 3 5 5 8 9 3 5 7 7 9 10 14 13 14 16 15 16 17 12 10 10 9 7 4 4 7 8 9 10 9 8 7 8 11 13 10 11 12 10 9 8 6 5 4 3 2 1 3 3 8 14 15 19 22 22 22 22 23 25 27 28
17 18 19 19 20 20 21 21 22 22 21 20 18 16 15 13 12 10 9 9 8 8 7 6 5 3 2 3 4 7 11 9 6 7 9 6 8 11 14 14 16 18 16 17 17 12 10 10 10 8 4 4 8 10 9 10 10 9 8 8 11 13 11 11 12 10 9 7 6 5 4 2 2 2 5 8 12 14 15 21 24 24 23 23 22 22 24 26
17 19 19 20 21 21 21 22 22 22 21 20 18 16 14 12 10 9 8 8 7 7 6 5 4 2 2 3 3 7 6 1 5 10 9 6 7 13 15 15 17 18 15 16 16 12 10 10 10 8 6 7 9 10 11 9 6 5 7 10 12 13 13 12 12 10 8 6 5 5 4 1 2 2 6 7 14 15 17 23 26 26 25 22 22 23 24 25
18 19 20 20 21 21 22 23 23 22 20 19 17 15 13 11 9 8 7 6 5 6 5 4 3 2 3 3 5 6 2 2 6 9 8 7 8 15 15 14 17 18 15 14 15 14 11 9 6 7 9 8 9 9 10 9 8 10 12 13 14 15 15 13 12 10 8 6 5 5 5 2 3 1 4 7 14 17 19 23 26 26 25 22 21 22 23 23
19 20 20 21 21 22 23 23 23 21 20 18 15 13 11 9 8 7 5 4 4 4 4 3 2 4 4 4 8 6 1 1 4 6 6 6 9 15 15 14 16 17 15 13 14 14 13 10 6 6 6 4 6 8 10 11 13 16 16 14 15 15 15 13 11 9 7 4 3 3 6 3 2 2 8 13 15 18 20 21 23 22 22 21 21 23 21 18
19 20 21 22 22 23 23 23 23 21 19 16 14 12 9 8 6 5 3 3 3 2 3 2 3 4 4 6 13 9 1 1 2 4 5 5 9 13 14 14 15 16 15 13 12 12 13 13 9 6 5 6 6 6 9 12 14 16 14 13 13 13 12 11 9 8 8 3 3 2 5 2 4 2 15 19 14 17 20 19 21 20 19 20 22 25 21 15
20 21 21 22 22 23 23 23 22 19 17 14 12 9 7 5 4 3 2 1 1 2 2 3 4 4 4 7 10 8 2 1 3 4 5 7 10 12 13 13 14 15 14 13 12 10 12 14 11 8 9 10 9 7 11 16 15 14 12 9 9 10 8 8 7 9 9 4 6 1 4 1 4 3 16 21 14 15 19 17 19 19 18 18 19 21 18 15
21 21 22 22 23 23 24 23 20 18 14 12 10 7 5 3 2 2 1 1 2 3 4 4 4 5 6 7 4 4 4 3 5 7 10 12 13 12 13 13 13 14 12 13 13 11 12 12 12 11 12 12 12 11 12 14 12 10 9 6 6 7 6 5 5 8 7 5 8 1 2 1 4 7 14 19 14 14 17 15 16 18 18 18 19 17 15 18
21 22 22 22 23 23 23 21 18 15 12 10 8 6 4 3 2 2 2 2 3 4 5 5 4 4 7 10 5 6 7 7 8 11 13 14 14 14 14 13 12 13 11 11 14 13 10 10 11 13 13 13 14 11 8 8 8 4 5 6 5 7 7 8 6 8 7 5 9 5 1 2 4 10 14 16 15 15 15 16 16 18 18 18 20 17 15 18
21 21 22 22 23 23 22 20 16 13 10 8 7 6 5 4 3 4 3 3 5 6 7 5 0 3 7 6 3 2 6 11 11 12 14 15 15 13 13 11 11 12 10 11 12 10 7 9 13 14 14 12 10 9 7 7 6 1 2 5 6 7 7 9 7 10 12 8 9 8 2 2 5 9 14 15 16 16 14 17 18 17 18 18 20 18 16 17
20 21 22 22 22 23 21 18 14 11 8 6 5 5 4 3 4 4 4 4 6 7 7 4 1 6 9 5 2 5 10 12 12 14 15 15 14 12 12 11 11 11 9 10 11 9 8 10 11 11 11 10 7 8 6 5 5 1 0 3 7 8 6 7 7 9 13 12 8 10 4 3 8 11 13 14 16 17 15 17 18 19 21 19 20 19 16 17
21 21 22 22 22 22 21 17 12 9 6 4 4 2 3 2 4 4 5 6 7 8 5 5 5 6 10 10 9 10 11 12 14 14 15 15 13 11 12 11 10 10 10 10 12 12 11 11 10 8 8 9 7 7 6 5 4 2 2 3 7 9 7 9 9 6 12 13 8 9 7 6 12 11 12 14 16 16 16 18 16 19 22 18 19 18 16 18
21 21 22 22 22 22 20 15 11 8 5 3 3 1 1 1 3 2 5 6 7 7 1 8 13 2 1 8 8 9 12 12 13 13 15 15 13 12 12 10 10 12 11 9 11 13 11 9 9 8 7 8 8 8 9 9 6 7 7 6 9 9 4 6 9 8 11 8 4 4 4 5 11 10 10 13 14 14 15 18 16 19 20 17 18 19 19 20
21 22 22 21 22 22 20 14 9 7 4 3 3 1 2 2 3 3 6 8 11 10 8 9 18 3 3 10 8 11 13 12 12 13 15 15 13 13 13 11 11 12 11 8 9 12 12 8 8 9 9 10 11 11 11 12 11 10 8 7 12 10 5 7 9 12 9 4 4 1 4 6 11 9 9 12 13 12 14 17 18 21 21 18 19 21 22 22
22 22 22 22 21 21 19 13 8 6 3 4 3 4 5 7 3 1 3 10 14 14 12 9 13 5 2 9 9 11 11 12 14 14 15 15 14 13 13 13 10 9 11 13 10 11 10 8 9 11 13 13 12 11 10 11 11 10 7 8 11 7 5 11 12 9 5 4 4 1 7 11 11 9 9 10 11 12 14 15 17 20 22 22 22 22 22 20
22 23 23 21 21 21 19 13 7 5 4 5 4 5 5 8 6 5 5 8 13 15 11 7 7 3 2 4 7 11 12 13 14 15 15 16 16 13 12 12 10 8 10 13 11 8 8 9 13 14 15 14 12 10 9 11 11 8 8 8 8 5 7 13 12 7 4 3 3 3 5 10 12 11 10 9 9 11 15 15 16 18 20 22 22 21 21 20
22 23 23 21 21 21 17 11 6 5 4 6 6 7 5 7 7 7 8 10 9 14 13 8 8 9 7 3 7 13 13 13 13 16 17 17 17 15 12 11 10 10 10 12 10 8 8 9 12 15 13 13 14 13 10 9 9 8 8 8 6 6 9 10 6 7 9 4 1 3 3 8 9 10 8 7 8 10 14 15 16 18 18 20 21 21 21 21
22 23 23 21 21 21 15 8 4 4 3 5 8 8 8 8 8 8 9 11 6 12 14 11 10 12 10 6 9 15 14 12 13 16 18 18 17 14 12 10 11 10 10 13 13 12 12 9 6 8 9 11 14 12 10 7 7 9 10 7 6 8 12 11 8 11 12 2 3 1 2 4 3 6 7 6 8 9 12 13 15 17 18 20 20 21 21 21
22 23 23 20 21 19 10 5 2 2 0 3 3 3 6 7 7 8 7 9 5 10 12 12 12 12 11 6 9 14 13 11 14 16 19 19 17 12 10 10 9 10 12 15 15 11 14 15 8 5 8 11 12 9 8 7 7 9 6 5 8 12 13 13 13 12 9 2 2 4 2 2 2 5 6 5 7 8 10 13 15 16 18 19 19 20 22 20
22 23 23 20 20 14 4 3 2 0 3 6 5 4 3 5 6 6 6 6 4 9 9 12 11 10 12 10 11 14 11 10 15 17 19 20 17 11 9 8 8 10 12 12 10 6 9 16 12 7 7 11 11 9 10 9 7 6 3 5 12 15 12 13 15 10 7 5 2 3 1 2 3 4 7 7 7 8 10 12 15 18 19 18 19 22 22 20
22 23 22 20 20 11 2 1 3 5 5 5 2 1 1 4 5 4 5 5 5 8 8 11 9 8 12 11 15 14 6 8 15 16 19 19 17 13 9 8 8 9 11 8 6 5 7 14 13 7 5 7 9 8 8 9 8 5 4 8 13 16 14 14 14 9 7 7 3 1 2 2 2 3 8 9 8 9 10 12 14 18 20 19 22 25 22 23
21 22 23 20 17 9 4 5 8 6 3 3 2 1 2 5 5 3 5 2 5 8 8 9 5 6 9 11 17 14 2 8 14 15 19 18 17 14 10 11 8 8 10 7 6 7 8 11 13 11 7 6 7 7 8 9 8 8 9 11 13 15 15 14 12 9 8 7 4 2 2 1 1 2 6 9 10 10 12 13 13 18 22 21 23 25 23 24
21 22 22 17 11 6 3 7 11 7 2 3 2 3 2 6 5 4 6 1 5 7 8 8 7 8 11 12 17 14 5 8 8 14 20 17 18 15 10 11 12 11 10 9 10 10 7 7 10 11 9 7 8 9 10 10 8 9 12 12 12 14 15 14 11 9 8 6 5 3 0 1 2 4 6 8 9 9 11 12 13 18 22 22 24 24 23 23
20 21 20 13 7 3 1 4 8 8 3 1 4 4 4 6 4 6 5 2 6 7 8 9 9 12 13 12 13 13 10 8 4 13 18 15 18 18 13 12 11 11 9 9 13 15 11 9 10 7 9 9 9 8 8 10 9 10 12 12 12 12 12 11 8 7 7 6 6 6 3 2 2 5 9 8 8 10 11 11 13 19 22 23 24 24 23 23
19 20 17 9 5 2 2 0 1 5 5 4 4 5 7 5 5 6 1 4 6 8 9 9 9 12 14 12 10 11 11 8 8 11 13 10 14 15 12 10 7 7 8 8 11 14 15 12 7 6 10 11 10 8 8 9 9 9 9 9 9 8 8 7 4 4 5 4 7 10 7 3 1 2 5 9 10 11 12 13 15 19 23 25 24 24 24 23
17 18 12 7 5 4 6 4 3 2 4 5 5 6 7 5 6 6 2 4 5 7 8 9 11 12 13 12 11 11 12 8 11 10 9 9 9 10 10 9 6 6 7 7 9 10 10 11 9 8 10 12 10 8 7 9 9 8 8 8 7 6 5 4 4 3 2 4 10 12 6 2 4 7 3 7 5 5 7 13 18 21 25 27 26 27 26 22
15 14 8 5 5 5 8 8 5 3 4 4 6 7 6 4 5 4 5 4 4 8 8 10 12 12 13 12 10 12 12 8 10 10 10 10 9 9 12 12 10 9 7 7 8 8 8 11 12 10 9 11 11 8 7 6 6 7 7 6 6 4 4 4 4 3 3 5 10 8 4 2 2 5 1 5 8 7 6 14 20 23 28 28 27 31 27 21
12 9 6 6 6 5 8 9 6 4 4 5 8 7 6 6 5 1 3 4 5 8 9 10 12 12 12 11 9 10 10 8 11 10 10 10 8 8 11 13 15 13 8 7 6 5 8 7 10 11 8 10 12 10 9 8 6 6 6 6 6 5 4 5 4 3 6 7 7 4 4 1 1 3 2 9 16 14 12 15 19 22 25 25 26 29 27 22
9 5 5 6 6 5 6 7 7 6 4 7 7 5 6 7 4 2 5 6 5 7 9 10 11 10 9 8 8 10 7 4 8 9 8 9 8 7 8 11 15 14 9 7 3 4 9 7 6 9 9 10 12 11 11 10 8 6 6 6 6 4 4 6 7 7 9 8 4 4 4 3 3 3 6 11 12 11 14 15 18 21 23 24 24 25 25 22
5 3 6 7 4 3 4 7 8 6 5 8 6 5 6 4 3 5 4 2 2 8 10 9 9 8 7 4 4 8 6 4 7 8 7 9 10 10 9 9 13 15 11 7 2 3 7 7 5 4 6 9 8 8 10 10 6 5 6 6 4 5 7 6 7 8 9 6 3 2 3 2 2 4 6 8 7 8 12 15 18 21 23 22 20 21 24 24
3 5 8 8 3 4 4 5 8 7 7 8 5 5 7 2 3 4 1 2 1 7 8 7 7 6 5 6 4 6 8 7 6 6 5 7 8 9 10 9 11 16 13 7 5 4 4 7 8 8 11 9 5 6 9 10 9 7 4 5 5 5 7 5 5 7 6 4 3 4 5 4 3 3 3 4 7 8 9 13 17 20 22 22 18 19 25 26
5 6 10 9 7 7 5 4 8 8 7 7 7 9 10 3 2 3 0 3 3 6 8 6 5 6 5 6 6 7 8 6 5 6 5 4 4 5 9 10 10 12 13 10 6 5 4 6 8 9 10 8 8 8 10 10 13 11 6 7 7 5 4 3 3 5 6 4 2 2 3 4 3 2 2 2 7 8 10 13 15 17 21 23 20 21 26 26
5 7 8 9 11 7 4 5 9 9 8 7 6 7 7 0 3 4 2 5 5 5 7 4 5 4 6 5 7 10 9 7 7 6 5 4 5 6 8 8 6 9 10 10 8 5 4 4 6 6 8 8 8 8 6 7 11 11 9 8 7 6 5 3 3 4 6 6 3 2 4 4 4 2 4 6 6 8 11 13 13 17 22 24 24 24 27 27
5 7 4 11 12 6 2 7 9 8 7 7 8 5 3 2 3 2 2 6 4 3 6 5 2 3 5 4 5 8 6 6 7 5 4 6 6 8 10 8 6 7 9 11 10 6 5 4 5 6 7 7 5 6 6 7 7 8 7 7 7 6 5 4 5 5 5 6 5 4 4 3 4 6 7 7 5 6 12 13 12 18 23 24 26 26 28 30
7 8 5 13 10 3 5 7 8 8 6 7 10 5 1 4 3 3 3 4 5 3 5 8 4 3 3 5 1 6 5 5 8 5 4 6 6 4 7 7 7 8 9 9 9 7 5 4 5 6 4 5 5 6 8 10 8 6 6 7 6 5 6 5 5 5 5 6 5 5 3 0 2 4 8 6 4 5 11 15 14 18 24 24 25 27 29 31
8 6 6 12 9 5 7 7 6 9 8 5 6 3 4 2 5 1 4 3 4 3 1 4 8 2 2 5 3 3 6 4 7 5 3 5 4 3 6 5 6 7 6 6 8 8 7 4 6 7 5 7 8 6 8 11 11 8 6 6 6 6 8 6 3 3 3 4 5 5 3 1 3 5 8 7 7 8 8 14 14 16 21 23 23 25 28 28
8 4 7 11 9 7 7 7 6 9 7 3 4 2 4 3 4 1 3 5 2 3 1 0 4 5 4 5 5 2 5 5 6 6 3 4 6 9 6 4 3 3 3 5 6 7 7 5 5 6 5 8 12 11 7 6 8 8 6 6 7 7 6 5 6 5 4 4 5 5 2 1 3 6 9 8 8 9 7 11 14 15 19 21 21 22 23 25
13 10 5 11 10 9 8 7 4 5 5 3 3 3 5 3 5 3 1 2 1 2 1 1 1 2 2 2 3 5 3 3 4 5 2 2 7 9 5 4 4 5 3 2 2 3 4 4 4 5 5 5 8 8 5 5 6 5 5 7 9 9 9 8 7 5 4 4 6 6 3 2 3 6 9 8 9 9 6 7 10 15 18 19 21 21 21 23
14 10 6 11 10 11 11 10 7 8 8 4 4 5 6 5 3 3 5 2 1 3 2 1 2 3 2 1 2 4 2 2 3 3 1 1 5 7 4 2 4 5 6 6 5 1 3 5 4 5 6 5 4 4 4 4 5 6 7 10 13 14 13 9 6 5 4 3 4 5 3 3 6 5 9 9 9 9 7 8 11 14 17 21 26 25 23 23
9 6 5 10 12 13 14 14 12 9 7 5 5 6 5 5 6 4 6 4 0 4 4 0 1 3 2 1 3 2 0 2 4 0 2 2 5 6 3 1 6 5 9 10 7 5 3 6 7 7 8 8 7 6 7 8 6 8 10 12 14 14 11 6 5 5 3 3 3 3 4 6 8 5 7 11 9 6 7 11 14 15 16 22 27 27 26 26
6 6 3 3 7 9 11 14 14 11 6 5 5 3 5 5 2 6 8 5 1 3 4 2 1 2 1 1 3 2 1 2 3 1 1 3 3 4 2 2 6 3 5 7 6 5 5 6 8 9 10 11 12 10 10 9 8 7 9 12 12 10 9 6 6 4 2 2 4 3 6 6 6 6 6 12 9 5 9 12 14 16 17 22 27 27 27 26
6 8 7 5 3 6 6 7 9 11 9 6 4 4 5 6 3 4 6 4 4 4 3 2 2 2 3 3 2 1 1 2 2 2 2 2 1 2 4 4 4 5 3 8 7 5 6 6 8 10 11 13 13 11 11 10 9 9 11 10 6 5 6 7 8 6 2 4 4 2 3 7 3 6 9 12 7 4 10 15 16 18 19 21 24 24 26 26
9 9 9 12 9 7 6 8 8 9 8 5 3 5 6 9 8 3 2 2 6 4 2 3 2 2 5 4 3 3 2 1 2 5 6 4 5 5 2 2 2 3 5 7 5 6 5 6 9 11 11 12 12 12 13 12 9 8 11 10 7 7 9 7 7 8 6 7 6 2 4 5 5 8 9 9 8 7 12 19 20 19 19 20 20 21 26 30
10 9 11 16 13 10 10 9 7 6 5 4 4 6 7 9 8 4 2 5 6 1 1 6 4 2 4 4 3 3 5 4 3 1 7 6 5 6 6 2 1 3 4 5 1 7 6 5 7 8 8 11 12 11 12 11 10 11 12 10 9 13 13 6 5 8 5 5 7 6 4 4 7 9 9 5 8 11 10 14 21 22 20 21 21 21 24 30
11 10 12 13 10 8 9 7 5 5 6 6 6 7 9 9 6 3 1 5 6 4 3 5 5 4 5 3 1 2 7 6 3 3 7 8 4 6 6 3 3 5 5 5 3 4 5 4 6 6 6 7 9 10 11 12 13 12 11 11 13 15 12 5 3 4 5 5 6 5 4 5 7 8 7 6 8 12 9 8 14 20 22 23 23 22 22 24
13 9 10 10 7 7 9 6 5 6 6 4 3 4 6 6 3 2 2 4 6 4 4 5 6 6 6 2 2 4 6 7 9 10 10 11 10 11 10 8 8 7 5 5 5 2 4 5 5 5 6 6 8 11 11 11 12 10 9 12 13 10 7 6 5 2 4 8 6 1 1 2 6 7 7 8 8 6 7 7 8 14 21 24 23 23 23 23
Wind_Direction
355 352 350 348 346 344 343 342 339 336 332 329 325 322 322 320 319 316 310 305 303 304 302 301 302 307 314 316 306 288 280 272 265 255 249 231 212 227 232 230 238 219 205 196 190 198 208 210 210 226 233 243 268 269 266 271 277 334 331 282 325 354 2 358 348 353 345 341 0 10 354 26 112 121 121 113 108 118 127 145 147 140 158 160 150 150 149 150
352 350 348 347 344 342 341 340 339 335 332 329 325 323 322 321 321 319 316 310 303 302 302 303 299 304 313 312 313 295 277 274 266 255 246 229 218 223 222 223 223 216 208 190 193 203 208 204 204 221 228 246 271 269 261 261 263 262 297 304 336 344 360 357 324 354 348 338 353 358 358 18 110 147 149 132 119 129 130 152 144 133 152 155 151 153 157 162
349 348 347 345 344 342 340 339 338 335 332 327 324 322 320 319 319 319 319 314 306 300 301 301 298 302 309 314 317 295 282 285 274 264 252 232 227 225 221 221 214 210 209 194 196 207 212 204 198 212 235 270 265 265 268 229 231 222 226 295 331 343 354 329 316 354 344 329 342 344 5 18 87 155 153 141 144 155 160 170 153 144 152 155 160 161 163 167
345 345 345 344 343 341 339 337 336 334 330 325 322 318 316 316 314 316 317 317 310 299 299 299 299 300 305 314 306 294 297 294 276 254 242 233 233 228 221 219 211 206 202 197 207 213 220 220 200 200 223 270 259 266 277 253 248 240 223 275 313 327 331 324 327 349 338 326 330 328 351 25 124 162 157 142 141 174 181 174 169 160 156 159 165 163 163 169
342 342 343 342 341 340 338 336 335 333 329 324 320 316 314 313 311 311 311 315 311 300 298 293 297 299 301 311 294 302 303 299 95 162 230 242 236 226 216 213 206 200 186 193 213 212 221 231 212 214 231 263 279 282 280 272 266 272 270 277 291 303 319 336 332 333 320 315 316 318 337 354 146 167 182 159 153 186 187 175 169 164 160 162 165 166 167 173
340 340 340 340 339 337 336 334 334 332 329 324 320 316 312 312 312 309 304 308 309 302 296 289 296 296 297 299 286 295 273 289 69 193 260 258 239 221 207 206 198 189 177 198 223 216 215 232 221 229 248 270 295 287 281 285 267 262 282 288 292 300 320 328 322 321 318 323 324 326 337 315 278 131 95 247 150 159 178 173 163 163 164 164 165 170 171 173
339 339 338 338 337 336 334 333 333 332 329 326 322 318 313 312 312 307 298 299 305 301 291 286 290 287 297 282 281 277 252 273 265 224 285 274 233 211 198 198 188 180 182 212 234 218 209 232 230 238 263 286 294 283 284 293 277 267 288 301 302 304 310 312 316 324 329 334 326 321 325 319 315 356 97 117 140 141 161 167 162 163 164 164 165 171 172 171
339 338 338 337 335 334 333 333 333 332 330 327 323 318 314 312 312 308 294 292 301 297 285 281 282 280 280 253 277 269 247 252 222 232 301 289 218 198 190 189 183 180 191 223 236 220 213 230 233 242 252 261 276 281 290 294 281 271 285 297 293 293 299 304 309 313 319 320 313 317 311 326 355 1 89 138 156 140 153 165 163 162 162 164 168 171 173 175
339 339 338 336 334 333 333 333 334 332 331 327 322 317 312 312 313 308 291 290 296 291 281 273 269 257 244 225 276 274 242 211 244 256 293 291 215 191 187 184 183 183 197 229 236 221 220 229 230 237 252 266 267 279 292 288 286 283 277 283 287 291 296 295 294 298 307 304 299 312 309 341 127 69 63 143 162 139 152 166 163 162 162 167 172 174 176 179
341 340 339 337 335 334 333 334 334 333 331 326 321 315 310 310 311 306 292 290 294 285 272 262 247 208 212 225 271 270 175 60 294 276 278 274 215 187 185 183 184 188 200 228 234 222 222 229 233 242 254 270 266 275 290 283 295 298 282 280 284 289 290 285 282 284 292 292 278 291 312 346 150 129 68 170 166 137 147 163 164 164 164 170 174 178 179 178
343 342 340 338 337 335 334 334 336 334 331 328 323 316 310 307 305 300 290 290 290 273 254 242 203 205 205 229 259 262 98 95 292 295 275 247 207 188 179 180 188 193 202 219 227 226 230 232 237 253 255 287 283 279 287 279 281 284 282 282 279 283 285 278 275 274 279 278 245 277 307 301 199 157 129 168 175 144 147 161 165 167 167 173 178 180 179 175
344 343 341 340 338 336 335 336 337 335 332 331 327 320 312 307 303 294 289 294 275 238 236 211 173 195 200 246 249 243 341 31 224 270 258 208 193 187 174 179 194 198 207 221 222 223 240 250 254 256 272 306 296 286 294 287 282 283 286 287 283 288 284 272 269 270 277 255 171 285 301 240 212 169 125 150 177 150 148 162 166 170 171 174 178 179 176 170
344 343 342 340 339 338 337 339 339 336 336 337 335 330 319 310 305 297 303 300 224 199 186 163 171 189 213 261 245 215 197 190 191 205 200 174 173 180 178 186 199 203 217 235 234 223 237 262 274 271 274 280 275 281 292 289 286 287 290 293 296 298 287 276 264 257 265 212 145 333 317 169 210 195 125 138 166 155 151 164 168 171 173 173 177 178 177 174
343 343 342 340 340 340 339 341 340 337 340 344 345 344 336 329 330 352 33 120 146 161 150 153 180 189 234 263 236 215 229 199 198 192 179 171 170 179 188 193 202 208 223 242 251 244 232 255 276 273 267 262 264 277 286 287 284 285 291 291 295 293 292 307 267 244 260 179 151 181 335 103 178 157 132 136 155 162 157 166 172 169 172 174 173 175 178 181
342 342 341 341 341 341 341 343 341 340 345 351 360 4 3 22 32 61 92 119 132 147 140 146 177 187 255 257 236 257 239 197 199 192 179 175 174 181 189 196 203 209 226 238 253 258 237 244 263 262 261 254 253 261 270 277 272 273 292 288 296 293 303 318 280 234 250 197 170 204 332 81 147 140 140 142 151 164 161 165 172 169 172 176 175 175 173 179
340 341 341 342 342 341 343 344 343 343 349 360 13 18 22 45 61 80 96 116 128 137 132 120 329 285 278 259 211 229 200 193 196 185 181 180 179 183 186 192 199 208 227 231 247 273 257 242 254 258 264 261 250 253 257 269 269 260 297 288 303 304 312 316 273 223 241 233 183 204 251 84 154 146 144 151 154 159 162 167 172 174 175 175 177 177 172 176
339 340 340 342 342 341 343 344 345 344 351 6 15 30 38 54 83 88 98 122 136 144 145 122 20 276 265 262 245 215 191 187 180 175 182 183 184 184 181 189 197 202 219 227 239 264 255 237 246 252 254 250 248 259 259 268 278 312 7 275 283 285 290 287 257 217 230 242 216 205 222 112 146 147 145 156 154 151 162 172 176 178 175 174 177 179 177 177
339 338 338 341 341 341 342 343 343 341 347 360 4 46 52 74 111 110 129 137 143 150 160 168 169 259 251 227 230 213 181 166 165 174 179 181 187 182 181 190 194 197 209 227 231 237 238 231 238 249 246 238 236 246 251 259 266 254 254 261 269 263 240 251 273 244 218 239 243 185 173 131 136 144 147 154 153 153 165 172 179 179 173 175 177 178 179 177
336 336 336 340 340 340 340 340 339 338 339 333 327 35 67 130 148 141 155 162 175 179 236 182 180 292 11 180 195 170 156 152 161 175 175 178 184 179 187 193 193 202 210 220 215 215 226 229 232 243 248 243 235 231 250 268 267 255 254 256 270 272 251 259 276 251 223 250 283 160 157 133 133 141 143 148 156 160 165 165 176 181 176 180 178 177 180 179
332 333 334 337 339 338 337 337 333 332 322 291 306 285 321 285 210 169 173 205 221 243 296 187 184 231 83 143 138 133 148 161 171 178 176 178 180 180 192 198 197 207 217 225 209 202 219 238 236 239 242 242 244 237 244 261 264 264 270 275 274 282 316 294 256 230 233 305 324 346 34 84 122 136 138 148 157 158 168 169 172 175 178 186 182 178 179 179
330 331 331 334 338 336 335 333 324 327 301 271 285 245 301 337 338 35 187 220 222 244 279 212 196 269 100 137 138 146 157 170 181 181 177 179 182 182 188 197 204 206 217 232 231 203 209 243 244 246 251 246 250 250 248 261 269 275 277 275 278 294 318 286 267 239 241 312 296 353 65 96 123 132 135 153 161 159 174 176 170 172 178 186 184 179 177 178
328 328 328 332 335 334 332 328 315 315 278 249 245 225 287 352 354 334 310 257 223 224 253 230 212 252 119 125 159 174 173 173 179 178 178 183 188 187 181 194 215 211 210 227 240 214 201 242 245 245 258 258 256 257 262 267 264 268 266 259 273 299 295 278 270 256 252 270 288 346 87 121 132 129 139 167 170 167 174 175 176 176 177 183 182 177 175 175
326 326 326 330 334 333 330 324 309 297 272 238 224 216 271 331 335 318 305 284 234 204 217 222 211 202 190 203 183 183 187 181 177 177 180 187 194 200 190 194 221 224 213 213 230 238 219 227 234 233 241 253 252 235 229 255 258 253 260 264 265 259 272 280 280 289 292 283 341 348 97 116 116 121 143 169 153 159 168 172 181 178 178 183 181 176 174 175
325 324 324 329 334 333 329 325 303 281 264 226 223 222 257 300 319 323 304 283 245 188 203 209 207 207 199 202 190 197 204 189 182 179 180 191 199 205 207 208 221 227 226 217 219 241 253 256 263 253 245 256 264 245 225 250 264 249 252 272 290 271 274 289 304 303 295 274 116 294 111 101 118 141 153 154 133 143 160 169 179 177 180 184 181 178 177 178
324 322 322 329 333 334 337 343 337 335 239 211 285 290 273 287 299 322 313 277 229 171 197 200 204 214 196 179 180 198 214 202 193 182 178 197 202 197 218 222 222 229 227 224 221 231 255 267 278 281 274 270 275 275 262 262 257 255 275 315 292 279 284 292 297 299 294 274 153 260 286 92 229 182 162 157 139 148 162 173 180 177 181 184 181 178 178 180
322 321 321 327 332 335 355 32 55 69 244 244 296 324 271 277 292 317 309 269 179 150 181 183 187 195 180 178 177 192 221 210 196 183 177 201 211 208 228 216 207 237 240 233 231 229 250 258 248 224 251 266 264 267 265 266 267 264 301 308 281 284 294 292 292 296 299 304 239 238 349 112 218 194 166 176 176 168 171 183 185 182 184 186 182 179 182 183
320 320 320 327 331 321 244 97 152 195 250 240 229 249 243 282 305 320 279 252 168 158 166 163 173 186 183 179 173 190 231 173 175 180 179 198 215 221 242 229 202 233 260 266 245 224 237 258 261 245 238 250 253 260 257 257 269 269 259 263 273 289 297 293 294 294 290 302 325 37 44 104 170 169 163 185 197 179 179 191 191 186 187 186 180 181 188 188
319 318 319 326 327 309 235 214 191 204 309 55 133 293 306 289 310 307 266 261 138 160 153 145 154 177 182 171 180 204 246 139 164 172 177 195 209 212 232 248 251 239 239 255 255 229 210 231 252 253 251 249 246 260 263 254 256 262 264 261 270 288 294 291 288 284 284 296 312 342 350 35 81 143 172 197 206 194 188 189 189 191 192 186 180 184 190 188
318 315 319 325 320 311 247 221 205 207 345 37 308 307 303 289 304 267 261 260 145 169 150 143 147 167 176 172 192 213 183 166 181 161 171 193 206 218 238 246 267 270 237 227 249 249 217 229 257 245 238 247 246 248 254 254 255 267 276 280 282 283 281 275 271 277 282 282 293 311 70 154 179 180 183 199 206 203 197 189 187 191 192 188 183 186 188 185
315 313 318 321 308 301 237 232 216 213 220 313 304 305 285 277 263 249 252 158 165 165 144 150 162 177 178 170 193 210 196 197 168 151 171 190 202 223 255 258 269 282 260 235 248 258 258 280 302 276 253 265 265 264 267 263 265 276 282 285 283 275 271 271 276 294 288 273 291 296 256 226 231 185 177 193 214 211 199 188 185 185 187 189 186 187 185 182
312 312 315 308 284 215 166 125 233 235 245 280 304 289 276 258 238 267 292 137 162 147 149 165 165 174 179 179 186 198 211 198 145 161 182 186 195 211 238 252 251 260 260 243 245 257 254 253 264 252 257 275 282 280 281 275 268 272 276 275 277 280 282 280 293 320 300 292 297 287 277 280 350 90 172 205 216 208 194 183 183 183 183 185 185 187 185 182
310 309 309 292 263 213 188 168 148 229 245 265 286 273 265 235 231 253 154 171 190 159 168 169 162 172 182 193 183 181 216 197 156 185 194 184 199 202 212 223 207 217 242 233 227 242 245 238 233 228 228 236 257 268 258 255 250 249 257 265 276 296 310 305 317 322 286 282 286 289 306 18 57 43 338 254 224 194 196 183 181 181 180 181 182 186 186 185
309 306 298 279 270 232 209 202 194 214 217 241 270 260 255 259 259 238 158 170 165 154 164 157 163 176 181 196 181 177 213 191 163 198 199 194 208 197 206 221 221 223 235 236 226 220 227 227 227 236 225 209 225 249 248 243 241 239 248 261 273 289 302 302 308 298 281 275 274 290 11 61 93 99 259 327 46 83 160 178 179 179 178 178 179 184 187 186
307 300 290 288 289 251 220 215 203 200 211 247 262 251 247 253 257 244 114 100 115 147 154 150 163 173 188 206 171 170 212 179 166 200 196 197 217 205 203 214 226 238 248 252 252 243 246 230 211 221 220 201 208 230 253 269 266 256 261 263 264 272 286 295 308 294 286 289 283 312 36 54 91 123 93 53 73 96 126 157 172 173 174 174 172 177 182 182
308 300 303 310 295 253 220 211 187 173 206 248 253 250 263 260 259 5 67 84 123 148 140 148 166 172 195 214 164 174 222 175 176 211 203 203 218 216 211 205 211 229 249 250 247 279 278 272 228 214 213 211 207 212 237 257 267 277 280 268 263 280 287 286 295 287 285 300 324 1 31 65 73 49 57 83 102 105 108 136 161 162 166 169 167 170 173 175
318 298 309 333 322 254 215 199 180 169 222 254 253 248 260 274 339 357 39 71 146 139 137 155 172 178 179 178 165 184 194 174 205 220 204 215 222 214 222 214 198 205 230 252 228 242 270 279 276 253 248 242 218 209 218 225 251 279 274 276 283 284 283 287 291 282 282 299 333 38 50 53 62 61 72 102 122 99 104 136 155 157 160 162 163 164 166 172
288 247 280 308 294 239 250 205 183 190 230 253 259 266 273 295 351 335 29 311 354 132 156 174 180 207 179 155 192 196 173 170 206 217 195 219 230 218 224 225 204 198 205 231 247 220 238 276 272 247 246 240 210 246 241 213 227 247 256 294 304 268 269 293 302 290 293 310 327 13 40 12 352 72 110 135 128 115 120 138 148 154 157 158 162 165 167 175
259 242 266 264 214 217 260 210 185 205 235 254 255 265 277 304 9 339 40 284 284 164 191 187 170 227 218 167 181 184 171 162 186 204 199 211 217 223 238 234 210 192 185 197 230 233 225 268 269 239 236 224 182 224 254 222 225 246 255 271 283 276 275 296 298 295 304 306 308 353 22 18 22 116 151 96 107 130 139 139 149 160 160 162 168 172 175 178
263 263 261 215 192 213 251 183 188 216 234 251 262 265 270 256 62 1 311 251 251 214 226 205 139 210 243 210 160 165 181 182 185 191 194 206 181 185 229 238 200 174 175 196 220 240 232 250 279 243 221 226 190 189 241 226 217 242 261 263 266 276 284 283 258 266 286 292 303 344 354 9 5 29 89 99 115 143 151 150 159 165 166 169 170 174 180 181
272 269 216 170 191 228 185 167 198 225 234 255 272 271 283 17 72 70 265 258 270 297 288 294 103 152 242 250 147 154 192 204 208 205 176 190 179 173 196 215 219 185 185 215 221 222 220 207 266 255 213 233 220 176 226 248 222 219 234 246 248 255 266 273 276 282 297 307 331 352 354 8 340 360 57 106 134 141 151 158 164 165 168 173 172 173 179 185
270 267 169 160 194 211 151 179 210 230 235 253 264 259 44 344 324 108 136 272 303 311 307 318 315 159 189 272 201 148 175 221 242 245 149 176 208 206 174 174 214 194 175 218 223 208 220 209 235 255 240 243 232 187 211 238 247 235 225 237 245 266 269 257 272 301 320 322 329 327 316 355 329 8 47 73 87 100 141 155 165 169 170 175 176 175 179 185
259 257 151 165 191 166 178 220 235 238 240 255 287 323 79 309 295 65 137 214 295 299 257 318 313 354 65 308 319 141 167 207 252 245 156 181 194 95 98 130 218 206 164 211 224 205 215 233 247 253 258 262 269 264 224 217 227 233 242 256 249 245 244 240 252 273 297 307 310 308 300 349 24 58 62 60 76 78 116 148 161 167 170 176 174 172 177 181
258 255 139 167 190 175 208 253 248 243 245 248 295 279 158 214 265 234 189 203 256 302 230 305 322 358 4 322 338 307 204 184 225 230 171 145 107 86 98 147 219 237 175 205 209 191 201 234 263 260 270 282 291 301 289 259 248 229 226 254 266 273 274 283 296 293 302 304 299 307 306 328 359 74 73 49 71 82 103 143 159 166 170 176 168 164 173 173
291 290 168 170 189 190 222 258 255 269 271 238 263 227 178 244 292 301 275 190 202 283 297 357 305 342 346 329 340 300 250 148 228 271 340 93 95 84 100 140 185 214 180 185 206 142 182 239 262 260 265 264 270 279 269 268 275 258 248 240 237 256 258 245 252 269 297 318 319 316 325 10 2 85 85 52 67 87 97 125 152 165 165 165 159 156 166 168
298 290 186 174 192 206 234 262 281 304 303 270 247 230 203 208 234 303 316 313 346 315 326 44 275 293 345 9 312 300 332 30 277 275 294 213 95 80 83 104 234 226 89 51 328 319 190 216 219 243 261 249 241 261 259 243 227 224 249 250 237 237 244 250 266 269 279 336 341 312 308 350 351 61 90 76 76 91 107 111 128 148 147 146 151 155 162 166
296 284 184 176 190 207 237 260 266 278 298 297 261 245 242 214 169 188 257 248 194 286 283 125 229 300 338 308 304 326 48 320 318 168 207 282 56 72 90 154 252 281 34 20 318 296 254 232 224 228 253 276 290 296 298 292 253 205 209 235 245 239 231 246 281 281 321 349 328 339 352 334 321 345 77 87 85 96 120 117 123 138 141 145 157 166 170 171
288 297 288 179 193 209 229 241 245 248 267 305 302 267 258 260 169 161 210 234 299 272 285 329 239 272 320 267 295 315 202 278 329 47 247 312 47 107 131 237 234 233 360 329 278 260 274 259 245 236 234 256 272 275 282 284 268 255 240 234 240 238 220 222 256 272 24 314 280 9 354 320 313 337 51 90 91 100 126 129 134 142 144 152 162 171 174 173
277 299 324 339 262 226 226 243 258 260 256 262 289 291 271 269 259 178 189 237 264 225 221 247 248 290 315 311 307 294 250 262 335 29 345 319 349 158 170 218 214 151 196 262 232 220 264 265 262 262 246 242 246 249 263 268 256 272 282 265 254 259 244 241 256 260 241 263 265 102 291 285 321 10 47 84 84 87 129 138 142 146 149 155 163 170 174 172
310 315 327 334 311 278 299 322 310 282 272 265 247 252 257 253 252 240 113 257 251 217 212 260 276 314 310 325 320 294 313 319 42 14 327 319 354 325 240 195 236 190 223 252 204 181 234 260 265 278 280 266 249 228 231 250 259 264 267 262 263 272 261 247 258 264 255 273 283 237 252 293 17 27 39 83 104 111 130 140 144 150 155 156 163 174 177 173
334 333 329 330 321 303 299 298 288 273 279 287 265 258 260 256 269 318 11 255 261 345 323 282 299 305 304 346 330 320 20 37 111 41 300 312 7 319 297 21 353 268 286 315 234 172 196 247 260 271 283 279 269 247 225 228 243 252 252 247 249 260 260 251 275 285 282 285 298 303 306 0 35 27 19 59 106 106 118 140 146 154 160 162 172 185 189 184
336 319 316 315 311 313 304 282 275 279 259 241 238 248 254 253 271 321 288 253 283 325 309 303 341 320 285 307 302 17 35 11 306 293 300 309 318 281 288 344 327 303 316 321 301 178 191 256 272 268 271 266 265 262 245 234 235 243 252 249 244 250 253 241 247 294 315 299 297 326 350 18 29 24 14 21 75 102 113 135 150 160 166 172 182 191 200 201
341 321 319 310 295 298 294 271 256 262 259 266 269 260 266 265 275 312 263 233 250 276 299 316 331 306 283 302 38 21 8 335 317 316 308 301 294 284 285 288 290 299 301 295 300 252 225 259 272 273 281 279 269 260 247 239 236 233 240 245 242 249 268 280 274 294 339 311 297 333 19 52 44 24 8 21 49 98 130 139 165 177 173 179 190 196 206 214
Height
1521 1520 1519 1517 1516 1515 1513 1512 1511 1510 1508 1507 1507 1505 1504 1504 1503 1503 1502 1501 1501 1501 1501 1501 1501 1501 1501 1501 1500 1499 1499 1498 1498 1498 1497 1496 1498 1498 1499 1500 1501 1502 1503 1503 1504 1506 1506 1506 1506 1507 1507 1507 1507 1506 1505 1503 1503 1504 1506 1507 1504 1505 1504 1497 1496 1495 1494 1495 1493 1491 1490 1492 1497 1498 1497 1500 1502 1504 1508 1508 1508 1509 1509 1510 1511 1512 1513 1514
1521 1520 1518 1517 1516 1514 1513 1512 1511 1509 1508 1507 1506 1505 1504 1503 1503 1502 1502 1501 1501 1500 1500 1500 1500 1500 1500 1500 1500 1499 1498 1497 1497 1496 1494 1495 1496 1497 1498 1499 1500 1502 1502 1503 1504 1506 1506 1506 1506 1507 1507 1506 1506 1505 1505 1503 1503 1504 1506 1508 1504 1500 1497 1492 1492 1490 1490 1492 1490 1490 1490 1490 1494 1497 1497 1500 1503 1505 1507 1506 1506 1509 1508 1509 1510 1512 1512 1514
1521 1520 1518 1517 1516 1514 1513 1511 1510 1509 1508 1506 1505 1505 1504 1503 1502 1501 1501 1501 1500 1500 1500 1500 1500 1500 1500 1500 1499 1498 1497 1497 1496 1493 1492 1494 1495 1496 1497 1499 1500 1501 1502 1503 1505 1506 1506 1506 1506 1507 1507 1506 1505 1505 1504 1502 1503 1502 1506 1511 1503 1494 1492 1491 1490 1488 1489 1489 1487 1489 1490 1490 1492 1494 1496 1500 1503 1505 1505 1503 1504 1507 1507 1508 1509 1510 1512 1513
1521 1520 1518 1517 1515 1514 1512 1511 1510 1508 1507 1506 1505 1504 1503 1502 1501 1501 1500 1500 1500 1499 1499 1499 1499 1499 1499 1499 1499 1498 1497 1496 1493 1491 1491 1493 1494 1495 1497 1498 1499 1501 1502 1503 1505 1506 1506 1506 1506 1506 1507 1505 1504 1503 1502 1501 1502 1501 1504 1508 1499 1491 1492 1492 1490 1488 1488 1488 1487 1488 1489 1490 1491 1492 1494 1498 1503 1507 1504 1501 1501 1503 1506 1507 1508 1509 1511 1513
1521 1519 1518 1516 1515 1513 1512 1511 1509 1508 1506 1505 1504 1503 1502 1501 1501 1500 1500 1499 1499 1499 1498 1499 1499 1499 1499 1499 1499 1497 1498 1497 1492 1490 1492 1493 1493 1495 1496 1497 1499 1501 1502 1503 1503 1505 1506 1505 1505 1505 1506 1504 1503 1503 1501 1499 1501 1501 1499 1497 1494 1491 1492 1490 1488 1488 1487 1487 1486 1486 1488 1490 1489 1490 1492 1494 1500 1503 1501 1501 1501 1502 1504 1506 1507 1509 1511 1513
1520 1519 1518 1516 1514 1513 1511 1510 1508 1507 1505 1504 1503 1502 1501 1501 1500 1499 1499 1499 1498 1498 1498 1498 1498 1499 1499 1499 1498 1497 1498 1496 1492 1491 1492 1492 1493 1494 1495 1497 1499 1501 1502 1502 1501 1504 1505 1504 1505 1504 1504 1503 1502 1503 1501 1499 1500 1503 1498 1492 1492 1491 1490 1489 1487 1487 1486 1485 1485 1486 1487 1487 1488 1490 1491 1493 1495 1497 1499 1500 1501 1502 1503 1505 1507 1509 1510 1513
1520 1518 1517 1515 1514 1512 1510 1509 1507 1506 1504 1503 1502 1501 1500 1499 1499 1499 1498 1498 1498 1498 1497 1497 1498 1498 1498 1498 1498 1497 1497 1493 1490 1492 1492 1492 1493 1493 1495 1497 1499 1501 1502 1502 1501 1502 1504 1504 1504 1503 1504 1505 1504 1501 1499 1498 1498 1500 1498 1492 1493 1491 1489 1488 1487 1486 1485 1485 1485 1486 1487 1487 1488 1490 1492 1495 1494 1496 1499 1500 1501 1503 1504 1505 1507 1508 1510 1512
1519 1518 1516 1515 1513 1512 1510 1508 1506 1505 1503 1502 1500 1499 1499 1498 1498 1498 1497 1497 1497 1497 1497 1497 1497 1497 1498 1498 1498 1497 1495 1492 1490 1491 1491 1492 1492 1493 1495 1496 1499 1500 1501 1502 1501 1502 1503 1503 1503 1503 1505 1505 1504 1501 1498 1499 1496 1496 1496 1492 1492 1490 1488 1487 1486 1485 1485 1485 1485 1486 1486 1487 1488 1489 1493 1496 1495 1496 1498 1499 1501 1503 1505 1506 1508 1509 1510 1512
1519 1517 1516 1514 1512 1511 1509 1507 1506 1504 1502 1500 1499 1498 1497 1497 1497 1496 1496 1496 1496 1496 1496 1496 1497 1497 1498 1497 1498 1497 1493 1490 1489 1491 1492 1491 1492 1493 1495 1496 1498 1500 1502 1502 1500 1502 1502 1502 1503 1503 1504 1503 1503 1500 1498 1501 1499 1493 1492 1491 1490 1488 1487 1486 1485 1484 1484 1484 1485 1486 1485 1486 1487 1490 1497 1497 1496 1497 1497 1499 1501 1502 1505 1506 1508 1509 1510 1512
1518 1517 1515 1513 1512 1510 1508 1507 1505 1503 1501 1500 1498 1497 1496 1496 1496 1495 1495 1495 1496 1496 1495 1496 1496 1497 1497 1497 1498 1495 1492 1491 1490 1490 1491 1491 1492 1493 1494 1497 1498 1500 1502 1502 1500 1500 1500 1500 1501 1502 1502 1500 1500 1500 1498 1501 1499 1492 1491 1489 1488 1487 1485 1484 1483 1482 1483 1483 1483 1486 1485 1485 1486 1491 1501 1498 1495 1498 1498 1499 1501 1502 1505 1506 1508 1509 1510 1512
1517 1516 1514 1513 1511 1509 1507 1506 1504 1502 1500 1498 1497 1496 1495 1495 1495 1495 1495 1495 1495 1495 1495 1496 1496 1497 1496 1497 1497 1494 1491 1492 1490 1489 1491 1491 1492 1493 1495 1497 1499 1500 1502 1502 1500 1500 1499 1499 1499 1501 1502 1499 1499 1500 1498 1497 1495 1492 1490 1488 1486 1484 1483 1481 1481 1481 1481 1482 1482 1484 1483 1484 1485 1489 1498 1497 1494 1498 1498 1499 1501 1502 1504 1505 1506 1507 1509 1511
1517 1515 1514 1512 1510 1508 1506 1505 1503 1501 1499 1498 1496 1495 1494 1494 1494 1494 1494 1494 1494 1495 1495 1495 1496 1496 1496 1496 1495 1492 1492 1493 1492 1490 1490 1491 1492 1494 1495 1497 1499 1500 1501 1501 1499 1499 1499 1498 1498 1499 1501 1500 1500 1501 1499 1495 1492 1490 1488 1490 1486 1482 1483 1479 1478 1480 1480 1481 1480 1482 1488 1489 1488 1489 1493 1494 1494 1496 1497 1499 1500 1501 1503 1504 1505 1506 1508 1510
1516 1515 1513 1511 1510 1508 1506 1504 1502 1500 1498 1497 1496 1495 1494 1494 1493 1494 1494 1494 1494 1494 1495 1495 1496 1496 1496 1494 1491 1491 1492 1493 1492 1491 1491 1491 1493 1495 1496 1498 1500 1501 1501 1500 1499 1499 1500 1499 1497 1498 1500 1501 1500 1500 1498 1492 1490 1489 1487 1489 1490 1490 1488 1478 1475 1479 1479 1480 1478 1483 1496 1497 1489 1487 1490 1493 1493 1494 1497 1498 1499 1500 1501 1503 1505 1506 1508 1510
1516 1515 1513 1511 1509 1507 1505 1503 1501 1499 1498 1497 1496 1495 1494 1493 1494 1494 1494 1494 1494 1495 1495 1495 1496 1496 1496 1492 1490 1491 1491 1493 1493 1492 1492 1493 1494 1496 1497 1499 1500 1501 1501 1500 1499 1499 1500 1499 1499 1499 1499 1500 1498 1497 1496 1492 1489 1489 1489 1490 1493 1498 1492 1476 1474 1479 1481 1481 1477 1484 1499 1497 1488 1486 1488 1492 1492 1493 1495 1496 1497 1499 1500 1503 1504 1506 1508 1509
1516 1514 1512 1511 1509 1507 1505 1503 1501 1499 1498 1497 1496 1495 1494 1494 1494 1494 1494 1494 1494 1495 1495 1495 1495 1496 1495 1491 1489 1489 1489 1492 1492 1492 1493 1493 1495 1496 1497 1499 1500 1500 1501 1501 1499 1498 1498 1499 1500 1499 1497 1496 1495 1496 1497 1495 1489 1488 1496 1500 1496 1499 1493 1479 1474 1476 1481 1480 1475 1484 1496 1494 1487 1484 1486 1491 1492 1492 1493 1494 1496 1498 1500 1503 1504 1506 1508 1509
1515 1514 1512 1510 1508 1506 1504 1503 1501 1499 1498 1497 1496 1495 1495 1495 1494 1494 1494 1494 1495 1495 1495 1496 1496 1497 1495 1490 1488 1488 1489 1490 1491 1492 1493 1494 1495 1496 1497 1499 1499 1500 1500 1500 1499 1498 1498 1499 1499 1497 1495 1494 1493 1494 1497 1499 1494 1489 1499 1505 1500 1499 1496 1488 1477 1471 1474 1476 1475 1481 1489 1491 1486 1483 1485 1489 1491 1492 1493 1494 1495 1498 1499 1501 1503 1504 1506 1508
1515 1513 1511 1510 1508 1506 1504 1503 1501 1499 1498 1497 1497 1496 1495 1495 1495 1495 1495 1495 1495 1495 1495 1495 1496 1498 1493 1488 1488 1488 1488 1489 1490 1492 1493 1494 1495 1496 1497 1498 1499 1500 1500 1500 1500 1499 1498 1498 1498 1496 1493 1491 1489 1492 1501 1510 1508 1499 1500 1504 1501 1498 1498 1494 1482 1470 1469 1473 1475 1477 1482 1486 1483 1481 1484 1487 1489 1491 1493 1493 1493 1496 1499 1499 1502 1505 1506 1507
1514 1513 1511 1509 1507 1505 1504 1502 1501 1500 1499 1498 1497 1496 1496 1495 1495 1495 1495 1495 1495 1495 1496 1495 1496 1498 1491 1485 1486 1486 1486 1488 1490 1491 1493 1494 1495 1496 1497 1498 1498 1499 1499 1499 1498 1497 1497 1495 1494 1494 1492 1490 1489 1493 1503 1509 1506 1502 1501 1504 1502 1494 1496 1498 1488 1472 1468 1471 1470 1475 1483 1484 1482 1480 1483 1487 1489 1490 1492 1493 1493 1495 1498 1500 1502 1505 1506 1507
1514 1512 1510 1509 1507 1505 1504 1502 1501 1500 1499 1498 1497 1496 1496 1496 1496 1496 1495 1495 1495 1494 1493 1492 1493 1494 1487 1482 1484 1485 1486 1489 1490 1492 1493 1493 1495 1496 1497 1497 1498 1498 1498 1498 1495 1493 1494 1493 1494 1497 1495 1491 1487 1488 1494 1491 1489 1492 1491 1495 1497 1489 1488 1492 1486 1470 1462 1467 1468 1471 1479 1481 1481 1481 1481 1485 1488 1489 1492 1494 1496 1498 1498 1500 1502 1504 1505 1506
1513 1511 1510 1508 1506 1505 1503 1502 1501 1500 1499 1498 1498 1497 1496 1495 1494 1494 1495 1495 1493 1489 1488 1488 1487 1487 1484 1483 1485 1486 1487 1490 1491 1491 1492 1494 1495 1495 1496 1497 1496 1496 1495 1494 1492 1489 1490 1495 1496 1495 1490 1485 1480 1478 1480 1478 1478 1482 1484 1489 1487 1483 1484 1481 1477 1466 1455 1465 1469 1465 1471 1476 1479 1480 1478 1483 1488 1489 1491 1493 1497 1499 1497 1497 1500 1502 1504 1506
1512 1510 1509 1507 1506 1504 1502 1501 1500 1500 1499 1498 1498 1497 1496 1494 1493 1494 1495 1493 1491 1488 1487 1487 1486 1485 1483 1483 1486 1487 1488 1490 1490 1491 1492 1493 1494 1495 1495 1494 1495 1496 1493 1489 1487 1484 1489 1496 1493 1485 1479 1474 1472 1470 1472 1475 1477 1479 1483 1488 1483 1481 1483 1473 1468 1462 1451 1463 1470 1462 1471 1480 1478 1479 1477 1480 1486 1488 1489 1491 1494 1497 1497 1498 1499 1501 1503 1505
1511 1509 1507 1506 1505 1503 1502 1500 1499 1499 1498 1498 1498 1497 1496 1496 1495 1496 1495 1491 1488 1488 1488 1487 1487 1486 1485 1485 1486 1487 1488 1488 1489 1491 1492 1493 1493 1493 1492 1492 1493 1493 1489 1487 1488 1487 1491 1493 1484 1476 1471 1468 1468 1468 1471 1475 1477 1479 1481 1483 1484 1482 1480 1470 1462 1455 1449 1461 1468 1461 1472 1480 1476 1477 1477 1477 1482 1486 1488 1489 1491 1494 1496 1498 1499 1500 1501 1503
1510 1508 1506 1506 1504 1502 1501 1499 1499 1498 1498 1498 1497 1496 1496 1497 1497 1496 1496 1492 1487 1486 1487 1486 1487 1486 1486 1486 1486 1487 1486 1485 1487 1489 1490 1492 1491 1490 1490 1490 1491 1490 1487 1488 1490 1491 1491 1484 1473 1467 1467 1468 1470 1468 1470 1475 1475 1478 1478 1480 1482 1479 1480 1476 1463 1453 1448 1452 1460 1461 1471 1481 1480 1479 1477 1476 1480 1483 1487 1490 1491 1494 1496 1496 1497 1499 1500 1501
1509 1507 1506 1504 1503 1501 1499 1499 1498 1497 1497 1497 1496 1496 1495 1496 1497 1496 1495 1490 1483 1483 1485 1485 1485 1485 1485 1485 1486 1486 1485 1484 1485 1487 1489 1490 1489 1489 1488 1486 1489 1489 1486 1483 1485 1488 1484 1472 1463 1463 1465 1468 1470 1465 1466 1475 1478 1475 1473 1475 1480 1476 1475 1472 1460 1453 1449 1448 1453 1459 1476 1492 1490 1484 1481 1477 1480 1483 1486 1489 1491 1493 1494 1495 1497 1498 1499 1500
1508 1506 1504 1503 1502 1500 1499 1498 1497 1497 1497 1496 1496 1496 1495 1497 1497 1496 1495 1490 1483 1481 1483 1484 1484 1483 1483 1484 1485 1485 1483 1482 1483 1485 1488 1488 1487 1487 1486 1484 1487 1488 1484 1480 1481 1484 1479 1467 1463 1468 1470 1469 1472 1470 1467 1474 1479 1476 1469 1469 1474 1473 1468 1464 1458 1457 1461 1464 1459 1456 1484 1507 1495 1486 1485 1479 1481 1485 1485 1487 1489 1491 1492 1494 1495 1497 1498 1500
1507 1505 1503 1502 1501 1500 1499 1498 1497 1498 1498 1497 1497 1496 1497 1498 1497 1497 1496 1490 1484 1482 1481 1482 1482 1481 1481 1483 1484 1485 1486 1482 1479 1483 1486 1487 1486 1485 1486 1483 1482 1484 1479 1474 1475 1477 1473 1465 1463 1468 1472 1472 1474 1475 1469 1469 1478 1481 1471 1464 1467 1465 1463 1463 1459 1461 1470 1471 1458 1453 1483 1508 1499 1489 1485 1481 1483 1485 1485 1486 1486 1489 1491 1492 1494 1495 1497 1499
1506 1503 1502 1501 1500 1499 1499 1498 1498 1498 1497 1498 1497 1498 1499 1497 1496 1497 1497 1494 1487 1479 1478 1479 1479 1478 1478 1481 1482 1485 1487 1480 1477 1482 1483 1486 1486 1484 1487 1482 1479 1481 1473 1472 1479 1476 1470 1469 1466 1465 1470 1475 1478 1477 1469 1466 1478 1482 1468 1462 1465 1463 1462 1461 1459 1462 1463 1458 1456 1457 1471 1491 1498 1492 1483 1480 1484 1485 1485 1485 1484 1486 1489 1491 1492 1494 1496 1497
1504 1502 1501 1500 1499 1498 1498 1498 1498 1496 1497 1498 1497 1499 1498 1497 1497 1496 1499 1503 1489 1473 1474 1477 1477 1477 1477 1480 1481 1480 1480 1475 1477 1482 1482 1485 1486 1483 1486 1482 1478 1478 1471 1478 1488 1474 1464 1471 1471 1468 1473 1477 1475 1472 1465 1464 1475 1473 1460 1459 1461 1459 1460 1458 1458 1460 1455 1458 1470 1466 1462 1483 1499 1491 1481 1480 1483 1486 1485 1482 1483 1484 1486 1489 1491 1493 1496 1497
1503 1501 1500 1499 1498 1497 1497 1498 1496 1496 1497 1497 1498 1499 1497 1498 1498 1494 1500 1502 1482 1468 1472 1475 1477 1478 1476 1479 1480 1477 1476 1475 1476 1478 1480 1485 1485 1483 1484 1480 1477 1476 1470 1475 1483 1471 1462 1465 1464 1465 1473 1474 1468 1463 1459 1463 1469 1462 1455 1457 1456 1456 1456 1454 1456 1456 1454 1467 1477 1466 1461 1483 1499 1490 1484 1486 1484 1483 1481 1477 1479 1482 1484 1487 1489 1492 1494 1496
1502 1500 1499 1498 1497 1497 1497 1496 1496 1496 1496 1496 1498 1498 1497 1499 1497 1499 1505 1493 1473 1468 1471 1473 1475 1475 1475 1478 1480 1477 1475 1475 1474 1477 1481 1483 1484 1484 1482 1479 1478 1478 1474 1473 1475 1469 1462 1461 1461 1462 1466 1464 1460 1458 1456 1458 1460 1457 1458 1461 1461 1458 1453 1451 1452 1452 1465 1478 1473 1462 1457 1470 1490 1487 1480 1481 1476 1471 1472 1473 1475 1478 1482 1485 1487 1490 1492 1494
1501 1499 1498 1497 1497 1497 1496 1496 1497 1497 1496 1497 1497 1497 1499 1497 1495 1503 1498 1474 1465 1471 1470 1472 1473 1471 1474 1478 1480 1479 1475 1473 1474 1478 1482 1481 1483 1485 1484 1484 1483 1484 1484 1480 1476 1469 1463 1465 1464 1462 1462 1460 1460 1462 1458 1455 1455 1459 1464 1466 1470 1466 1458 1461 1460 1462 1486 1493 1471 1456 1451 1462 1483 1483 1471 1468 1460 1456 1462 1467 1470 1473 1477 1482 1485 1488 1490 1492
1499 1498 1496 1496 1496 1496 1495 1496 1496 1497 1498 1497 1497 1498 1497 1497 1498 1496 1481 1465 1469 1473 1467 1469 1471 1470 1473 1475 1476 1478 1475 1473 1474 1477 1479 1481 1483 1483 1485 1486 1485 1491 1494 1485 1479 1474 1468 1466 1461 1459 1460 1459 1466 1470 1466 1460 1457 1463 1467 1470 1480 1483 1482 1491 1489 1484 1493 1490 1466 1451 1454 1469 1480 1474 1467 1460 1450 1449 1455 1459 1463 1467 1472 1478 1482 1486 1490 1492
1498 1496 1496 1495 1495 1495 1495 1495 1495 1497 1497 1497 1499 1496 1495 1503 1498 1475 1463 1465 1468 1464 1460 1464 1467 1467 1472 1474 1473 1474 1473 1473 1473 1475 1475 1477 1481 1481 1481 1478 1476 1485 1489 1481 1478 1478 1474 1466 1459 1462 1461 1456 1463 1473 1475 1469 1463 1465 1467 1473 1485 1493 1507 1515 1505 1498 1495 1479 1458 1447 1456 1477 1479 1468 1462 1454 1448 1454 1458 1457 1461 1464 1469 1476 1480 1484 1489 1491
1496 1495 1495 1494 1494 1494 1494 1495 1495 1496 1497 1498 1498 1495 1498 1505 1487 1458 1455 1462 1457 1455 1457 1461 1465 1468 1470 1470 1469 1469 1472 1473 1471 1473 1475 1476 1481 1481 1478 1476 1473 1475 1477 1477 1477 1477 1480 1476 1463 1462 1461 1455 1458 1464 1467 1465 1464 1463 1457 1464 1476 1483 1501 1507 1496 1498 1494 1472 1456 1451 1463 1480 1478 1465 1454 1448 1450 1455 1458 1458 1460 1465 1470 1475 1480 1484 1488 1490
1495 1495 1495 1494 1494 1494 1493 1494 1495 1495 1498 1498 1495 1495 1499 1494 1472 1457 1458 1457 1453 1456 1457 1458 1464 1471 1472 1467 1463 1462 1468 1472 1470 1472 1475 1476 1479 1477 1474 1473 1471 1471 1475 1481 1479 1475 1483 1477 1456 1449 1450 1449 1455 1455 1454 1461 1469 1463 1452 1462 1473 1469 1476 1484 1479 1478 1475 1469 1466 1466 1474 1472 1463 1458 1450 1448 1451 1450 1453 1458 1460 1467 1471 1475 1480 1483 1486 1490
1495 1495 1494 1493 1493 1493 1493 1494 1494 1495 1497 1497 1495 1495 1488 1475 1463 1459 1457 1452 1452 1456 1460 1464 1466 1470 1473 1470 1467 1464 1464 1470 1472 1472 1473 1473 1472 1470 1467 1464 1462 1466 1472 1477 1479 1480 1488 1480 1455 1449 1450 1445 1449 1450 1448 1460 1473 1468 1463 1468 1463 1453 1459 1474 1476 1465 1463 1479 1479 1473 1481 1473 1461 1463 1456 1452 1455 1452 1455 1459 1461 1467 1472 1475 1479 1481 1485 1489
1495 1494 1494 1493 1492 1493 1493 1493 1494 1496 1496 1495 1496 1491 1475 1462 1458 1455 1453 1451 1450 1451 1461 1469 1467 1466 1470 1472 1472 1467 1464 1468 1471 1472 1473 1473 1469 1463 1461 1458 1453 1458 1462 1469 1475 1474 1482 1483 1461 1454 1459 1448 1444 1450 1448 1449 1460 1468 1472 1465 1452 1451 1456 1466 1480 1477 1474 1489 1484 1473 1482 1482 1479 1481 1464 1453 1460 1460 1458 1460 1463 1468 1472 1475 1478 1481 1485 1488
1494 1494 1493 1493 1493 1493 1492 1493 1494 1496 1495 1494 1494 1486 1470 1460 1456 1452 1451 1452 1449 1450 1458 1465 1464 1462 1463 1467 1469 1464 1464 1471 1473 1472 1474 1476 1470 1460 1458 1458 1451 1451 1455 1463 1473 1468 1472 1485 1469 1451 1456 1450 1442 1454 1459 1451 1449 1456 1460 1454 1456 1471 1473 1470 1484 1491 1488 1492 1488 1478 1476 1476 1480 1481 1465 1457 1462 1462 1461 1462 1465 1469 1471 1474 1477 1480 1484 1487
1494 1494 1492 1491 1492 1492 1491 1493 1494 1495 1495 1493 1489 1480 1465 1457 1455 1453 1453 1452 1449 1453 1456 1455 1456 1458 1457 1457 1459 1459 1462 1469 1469 1468 1471 1475 1471 1460 1455 1457 1453 1451 1454 1459 1470 1467 1466 1484 1480 1454 1448 1449 1447 1458 1469 1463 1452 1451 1453 1452 1455 1466 1471 1470 1474 1479 1482 1484 1482 1482 1481 1476 1470 1461 1457 1461 1459 1457 1461 1464 1464 1467 1470 1472 1475 1479 1483 1486
1495 1493 1490 1489 1491 1491 1490 1492 1494 1494 1493 1488 1482 1471 1460 1456 1455 1454 1455 1453 1449 1453 1456 1451 1450 1456 1457 1452 1452 1455 1459 1462 1461 1460 1463 1466 1465 1460 1453 1454 1454 1454 1455 1457 1463 1465 1464 1478 1485 1463 1447 1454 1458 1458 1463 1463 1457 1457 1462 1464 1461 1457 1457 1462 1463 1459 1465 1476 1481 1488 1495 1485 1463 1447 1449 1457 1454 1451 1457 1460 1462 1464 1467 1470 1473 1476 1480 1483
1495 1492 1488 1489 1490 1489 1490 1492 1491 1489 1487 1482 1473 1463 1459 1459 1456 1453 1455 1455 1452 1451 1452 1450 1448 1450 1455 1453 1450 1451 1456 1461 1457 1454 1457 1458 1459 1458 1451 1450 1452 1453 1457 1461 1461 1464 1466 1473 1480 1472 1461 1463 1459 1447 1446 1451 1451 1453 1459 1460 1460 1459 1461 1472 1476 1464 1460 1471 1478 1486 1494 1481 1455 1443 1446 1449 1448 1448 1450 1455 1459 1462 1466 1470 1472 1474 1477 1481
1493 1490 1486 1488 1489 1488 1490 1490 1485 1481 1479 1474 1466 1460 1462 1463 1458 1455 1456 1455 1454 1450 1449 1451 1449 1447 1451 1453 1449 1448 1454 1460 1457 1452 1454 1453 1452 1453 1450 1449 1450 1449 1455 1464 1461 1457 1460 1466 1474 1474 1467 1460 1450 1438 1437 1440 1440 1445 1451 1451 1451 1455 1459 1471 1479 1470 1463 1468 1469 1473 1486 1476 1447 1438 1443 1443 1443 1446 1448 1453 1458 1460 1465 1468 1470 1474 1477 1479
1491 1488 1486 1487 1487 1488 1490 1488 1481 1475 1471 1466 1462 1460 1461 1462 1458 1456 1455 1455 1455 1452 1451 1454 1452 1452 1454 1452 1451 1451 1452 1456 1456 1450 1449 1450 1448 1450 1450 1451 1452 1450 1454 1461 1459 1454 1458 1468 1476 1476 1468 1458 1448 1440 1436 1434 1437 1445 1450 1448 1450 1451 1449 1454 1460 1458 1463 1470 1468 1473 1488 1477 1446 1434 1440 1441 1441 1445 1448 1452 1457 1460 1464 1467 1470 1475 1477 1480
1491 1487 1486 1487 1487 1487 1489 1486 1480 1475 1468 1462 1461 1461 1460 1460 1458 1457 1456 1455 1455 1453 1455 1457 1454 1455 1455 1452 1454 1454 1452 1458 1459 1450 1449 1452 1452 1451 1450 1451 1454 1454 1456 1458 1456 1458 1467 1474 1479 1485 1486 1479 1471 1463 1456 1450 1449 1452 1452 1448 1449 1449 1447 1450 1450 1452 1463 1468 1466 1476 1486 1473 1446 1436 1440 1441 1442 1446 1448 1451 1454 1458 1462 1466 1470 1475 1478 1480
1491 1486 1483 1485 1487 1487 1486 1481 1477 1476 1469 1464 1464 1462 1460 1460 1459 1460 1458 1456 1454 1454 1457 1458 1455 1454 1453 1453 1457 1455 1452 1459 1461 1455 1453 1453 1451 1450 1452 1454 1455 1452 1454 1457 1456 1459 1469 1474 1477 1487 1495 1493 1487 1479 1470 1461 1456 1455 1453 1450 1448 1446 1447 1452 1452 1458 1469 1467 1465 1475 1479 1465 1447 1440 1443 1444 1445 1449 1450 1451 1455 1458 1462 1466 1468 1474 1478 1479
1492 1487 1481 1481 1484 1484 1483 1479 1477 1476 1471 1468 1467 1462 1460 1461 1458 1459 1460 1458 1457 1455 1455 1456 1455 1456 1457 1458 1462 1462 1457 1457 1459 1457 1457 1455 1454 1453 1454 1456 1456 1453 1456 1460 1459 1459 1466 1469 1469 1476 1482 1480 1477 1469 1457 1452 1454 1455 1454 1450 1447 1443 1442 1449 1457 1465 1467 1466 1470 1471 1466 1462 1454 1445 1447 1447 1448 1451 1452 1453 1458 1461 1465 1467 1468 1472 1476 1478
1494 1487 1479 1479 1481 1480 1479 1477 1474 1473 1469 1469 1470 1463 1462 1462 1459 1459 1460 1459 1459 1457 1456 1456 1455 1459 1463 1462 1465 1468 1463 1460 1461 1461 1460 1459 1457 1456 1456 1456 1455 1456 1458 1459 1459 1462 1469 1472 1466 1466 1469 1467 1464 1459 1451 1450 1453 1452 1450 1447 1443 1440 1439 1447 1457 1459 1457 1468 1479 1469 1458 1462 1458 1447 1448 1450 1449 1451 1452 1454 1460 1463 1466 1468 1470 1473 1475 1477
1494 1487 1479 1480 1481 1477 1476 1474 1471 1468 1466 1467 1469 1466 1466 1466 1463 1462 1461 1459 1459 1458 1460 1462 1459 1459 1461 1461 1466 1469 1467 1467 1468 1467 1465 1463 1460 1459 1458 1456 1454 1455 1458 1457 1457 1461 1471 1475 1465 1461 1463 1458 1454 1454 1452 1451 1451 1449 1448 1445 1441 1441 1443 1448 1451 1448 1450 1464 1471 1463 1458 1459 1454 1445 1446 1448 1448 1450 1451 1455 1460 1464 1466 1468 1470 1473 1476 1478
1493 1489 1484 1484 1481 1475 1473 1474 1471 1469 1467 1467 1468 1468 1469 1469 1464 1460 1459 1462 1463 1458 1460 1466 1464 1461 1461 1460 1464 1469 1470 1473 1476 1475 1471 1467 1465 1465 1464 1461 1457 1454 1454 1454 1453 1457 1468 1474 1465 1461 1463 1456 1450 1450 1449 1451 1452 1451 1449 1445 1442 1444 1443 1444 1446 1443 1445 1452 1453 1453 1456 1454 1448 1444 1443 1444 1446 1448 1451 1456 1460 1463 1466 1468 1470 1474 1476 1477
1496 1495 1492 1489 1484 1478 1476 1475 1472 1472 1471 1470 1472 1470 1467 1467 1465 1461 1461 1466 1468 1463 1463 1467 1465 1462 1462 1462 1465 1469 1468 1469 1475 1477 1473 1469 1471 1472 1468 1465 1461 1456 1454 1456 1455 1456 1466 1471 1463 1461 1467 1462 1451 1445 1445 1449 1453 1454 1450 1444 1443 1445 1442 1442 1445 1443 1445 1451 1449 1448 1456 1456 1448 1442 1441 1442 1445 1448 1452 1456 1459 1463 1466 1468 1470 1473 1475 1477
1499 1499 1497 1494 1489 1483 1479 1475 1473 1475 1475 1472 1472 1471 1467 1466 1465 1465 1465 1464 1466 1467 1466 1467 1466 1464 1463 1464 1467 1469 1467 1466 1468 1469 1467 1467 1470 1471 1466 1462 1461 1461 1460 1460 1459 1458 1465 1469 1463 1462 1471 1468 1454 1449 1448 1446 1448 1452 1452 1447 1445 1446 1443 1441 1443 1444 1448 1454 1453 1455 1464 1463 1451 1444 1443 1443 1445 1450 1455 1457 1459 1463 1466 1467 1469 1471 1473 1476
1500 1499 1498 1497 1492 1486 1481 1476 1474 1477 1475 1469 1468 1467 1467 1466 1463 1467 1472 1468 1464 1466 1467 1466 1468 1468 1467 1468 1470 1470 1469 1469 1468 1467 1466 1465 1464 1463 1462 1460 1459 1462 1463 1462 1461 1459 1462 1467 1465 1466 1475 1469 1455 1450 1447 1447 1455 1460 1452 1444 1441 1441 1441 1441 1441 1442 1446 1450 1454 1460 1463 1458 1449 1447 1448 1447 1449 1453 1455 1457 1460 1462 1464 1467 1469 1469 1471 1474